STARLINK-4720, 53800

Orbit data source: Space-Track

STARLINK-4720, 53800 is a payload satellite owned by SpaceX/Seattle (US) in LEO that was launched on Sun, 11 Sep 2022 UTC via an FALCON 9 launch vehicle from the Air Force Eastern Test Range (AFETR). Payload-class satellites include a variety of spacecraft equipped with specific instruments for various scientific and technological missions. These include communications satellites like Starlink; space stations such as the ISS; scientific satellites like the Hubble; Earth observation satellites from companies like Planet Labs, Umbra, and HawkEye 360; GPS; miniature CubeSats for education and research; and military/defense satellites.

Loading next visibility...
Identifier
53800, 2022-111AD
Orbit
LEO
Last TLE update
6 hours ago
Origin
Manufacturer
SpaceX/Seattle
Mission
Operational Commercial Communications
Bus & Motor
STARLINK, Unknown motor
Mass
305 kg wet, ~290 kg dry
Launch date (UTC)
2022-09-11 (3 years ago)
Launch vehicle
FALCON 9
Launch site
Air Force Eastern Test Range (AFETR)
Object type
Payload
Rocket body
Debris
Shape & HBR
Box + 1 Pan, 8.86 m
Radar Cross Section
13.562 m², Large (>1 m²)

Expand to show TLE details & history

TLE from 6 hours ago
0 STARLINK-4720
1 53800U 22111AD  25188.57811976  .00000807  00000-0  68803-4 0  9995
2 53800  53.2180 284.4162 0001116  82.1114 278.0005 15.08835076156816
Epoch: 2025-07-07T13:52Z
TLE epoch observation values (Epoch: 2025-07-07T13:52:29.547Z)
Latitude
0.00001°
Longitude
150.50764°
Altitude
540.549 km
Speed
7.593 km/s
True Right ascension
18h 57m 39s
True Declination
0° 00' 00"
Sunlit
Object was in full shadow at epoch
Visualization orbit readout
Latitude
7.24022°
Longitude
154.73054°
Altitude
539.789 km
Speed
7.594 km/s
Apparent Right ascension
19h 41m 50s
Apparent Declination
-15° 23' 07"
Sunlit
Object is in full shadow
Visualization observer readout
Local Sidereal Time
08:20:08
Azimuth
21.53° NNE
Elevation
-64.084°
Doppler factor
1
Orbital elements
Apogee altitude
540.775 km
Perigee altitude
539.231 km
Semi-major axis
6,918.14 km
Eccentricity
0.00011
Inclination
53.218°
RAAN
284.4162°
Arg. of periapsis
82.1114°
True anomaly
Unknown
Mean anomaly
278.0005°
Eccentric anomaly
Unknown
Mean motion
3.77189 °/min
Orbital period
95.44 mins
BSTAR
0.000068803
Loading maneuver chart data...
Loading SW <> Apogee altitude chart data...
Loading historical data...
Loading historical data...
Loading historical data...
Loading historical data...
Loading historical data...
Loading historical data...
Loading historical data...

STARLINK-4720 Visibility forecast

Observer location: undefined°, undefined°

Span
Click to sort rows by Start time (UTC) header in descending order
Start Az.
Max El. time (UTC)
Max El. Az.
Max El.
End time (UTC)
End Az.
6 mins2025-07-08 09:08:25.173Z228.371° WSW2025-07-08 09:11:25.173Z53.875° ENE44.363°2025-07-08 09:14:25.173Z50.159° ENE
4 mins2025-07-08 10:49:25.173Z307.741° NW2025-07-08 10:51:25.173Z347.937° N19.187°2025-07-08 10:53:25.173Z21.283° NNE
4 mins2025-07-08 14:10:25.173Z347.866° N2025-07-08 14:12:25.173Z25.505° NE18.612°2025-07-08 14:14:25.173Z60.221° ENE
6 mins2025-07-08 15:49:25.173Z312.806° NW2025-07-08 15:52:25.173Z106.836° ESE43.532°2025-07-08 15:55:25.173Z127.744° SE
|